Weather observations for the past three days for
Hillsville
| Date | Time (edt) | Wind (mph) | Vis. (mi.) | Weather | Sky Cond. | Temperature (ºF) | Relative Humidity | Wind Chill (°F) | Heat Index (°F) | Pressure | Precipitation (in) | ||||||
|---|---|---|---|---|---|---|---|---|---|---|---|---|---|---|---|---|---|
| Air | Dwpt | 6 hour | altimeter (in) | sea level (mb) | 1 hr | 3 hr | 6 hr | ||||||||||
| Max. | Min. | ||||||||||||||||
| 02 | 15:35 | NW 16 G 21 | 10.00 | Mostly Cloudy | BKN065 BKN075 | 55.4 | 28.4 | 36% | 29.89 | 0.0 | |||||||
| 02 | 15:15 | NW 15 G 21 | 10.00 | Mostly Cloudy | BKN065 | 53.6 | 28.4 | 38% | 29.88 | 0.0 | |||||||
| 02 | 14:55 | NW 14 G 22 | 10.00 | Mostly Cloudy | BKN065 | 55.4 | 28.4 | 36% | 29.88 | 0.0 | |||||||
| 02 | 14:35 | N 15 G 21 | 10.00 | Partly Cloudy | SCT065 | 53.6 | 28.4 | 38% | 29.89 | 0.0 | |||||||
| 02 | 14:15 | W 12 G 22 | 10.00 | Partly Cloudy | SCT060 | 53.6 | 28.4 | 38% | 29.89 | 0.0 | |||||||
| 02 | 13:55 | N 10 G 20 | 10.00 | Partly Cloudy | SCT060 | 53.6 | 30.2 | 41% | 29.91 | 0.0 | |||||||
| 02 | 13:35 | NW 12 | 10.00 | Fair | CLR | 51.8 | 28.4 | 41% | 29.91 | 0.0 | |||||||
| 02 | 13:15 | N 12 G 20 | 10.00 | Fair | CLR | 51.8 | 28.4 | 41% | 29.92 | 0.0 | |||||||
| 02 | 12:55 | N 13 | 10.00 | Fair | CLR | 51.8 | 30.2 | 44% | 29.93 | 0.0 | |||||||
| 02 | 12:35 | NW 10 G 17 | 10.00 | Fair | CLR | 50 | 26.6 | 40% | 46 | 29.94 | 0.0 | ||||||
| 02 | 12:15 | N 16 G 22 | 10.00 | Partly Cloudy | SCT060 | 50 | 28.4 | 43% | 45 | 29.94 | 0.0 | ||||||
| 02 | 11:55 | N 15 G 22 | 10.00 | Mostly Cloudy | BKN060 | 50 | 28.4 | 43% | 45 | 29.94 | 0.0 | ||||||
| 02 | 11:35 | N 7 G 17 | 10.00 | Mostly Cloudy | BKN060 | 46.4 | 28.4 | 50% | 43 | 29.95 | 0.0 | ||||||
| 02 | 11:15 | NW 13 G 17 | 10.00 | Partly Cloudy | SCT060 | 44.6 | 28.4 | 53% | 39 | 29.95 | 0.0 | ||||||
| 02 | 10:55 | NW 12 | 10.00 | Fair | CLR | 44.6 | 28.4 | 53% | 39 | 29.95 | 0.0 | ||||||
| 02 | 10:35 | NW 13 | 10.00 | Fair | CLR | 44.6 | 30.2 | 57% | 39 | 29.95 | 0.0 | ||||||
| 02 | 10:15 | NW 12 | 10.00 | Partly Cloudy | SCT060 | 44.6 | 30.2 | 57% | 39 | 29.95 | 0.0 | ||||||
| 02 | 09:55 | NW 12 | 10.00 | Mostly Cloudy | BKN060 | 44.6 | 30.2 | 57% | 39 | 29.95 | 0.0 | ||||||
| 02 | 09:35 | N 10 | 10.00 | Mostly Cloudy | BKN060 | 44.6 | 30.2 | 57% | 40 | 29.95 | 0.0 | ||||||
| 02 | 09:15 | N 10 | 10.00 | Mostly Cloudy | BKN060 | 44.6 | 30.2 | 57% | 40 | 29.95 | 0.0 | ||||||
| 02 | 08:55 | NW 12 | 10.00 | Overcast | OVC060 | 42.8 | 30.2 | 61% | 37 | 29.95 | 0.0 | ||||||
| 02 | 08:35 | N 12 | 10.00 | Mostly Cloudy | BKN060 | 42.8 | 28.4 | 57% | 37 | 29.95 | 0.0 | ||||||
| 02 | 08:15 | N 10 | 10.00 | Partly Cloudy | SCT060 | 42.8 | 28.4 | 57% | 38 | 29.94 | 0.0 | ||||||
| 02 | 07:55 | N 10 | 10.00 | Partly Cloudy | SCT065 | 42.8 | 28.4 | 57% | 38 | 29.95 | 0.0 | ||||||
| 02 | 07:35 | N 8 | 10.00 | Fair | CLR | 42.8 | 30.2 | 61% | 39 | 29.94 | 0.0 | ||||||
| 02 | 07:15 | N 8 | 10.00 | Partly Cloudy | SCT065 | 42.8 | 32 | 66% | 39 | 29.94 | 0.0 | ||||||
| 02 | 06:55 | N 9 | 10.00 | Partly Cloudy | SCT060 | 42.8 | 32 | 66% | 38 | 29.92 | 0.0 | ||||||
| 02 | 06:35 | N 9 | 10.00 | Partly Cloudy | SCT060 | 42.8 | 32 | 66% | 38 | 29.93 | 0.0 | ||||||
| 02 | 06:15 | N 10 | 10.00 | Partly Cloudy | SCT060 | 42.8 | 32 | 66% | 38 | 29.93 | 0.0 | ||||||
| 02 | 05:55 | N 10 | 10.00 | Partly Cloudy | SCT060 | 44.6 | 32 | 61% | 40 | 29.93 | 0.0 | ||||||
| 02 | 05:35 | N 10 G 17 | 10.00 | Partly Cloudy | SCT033 SCT060 | 44.6 | 33.8 | 66% | 40 | 29.94 | 0.0 | ||||||
| 02 | 05:15 | N 10 | 10.00 | Mostly Cloudy | SCT023 BKN031 | 44.6 | 35.6 | 71% | 40 | 29.94 | 0.0 | ||||||
| 02 | 04:55 | N 13 | 10.00 | Overcast | BKN023 OVC028 | 44.6 | 37.4 | 76% | 39 | 29.94 | 0.0 | ||||||
| 02 | 04:35 | N 9 | 10.00 | Mostly Cloudy | BKN023 | 46.4 | 37.4 | 71% | 42 | 29.94 | 0.0 | ||||||
| 02 | 04:15 | N 12 G 16 | 10.00 | Fair | CLR | 44.6 | 37.4 | 76% | 39 | 29.94 | 0.0 | ||||||
| 02 | 03:55 | N 10 G 16 | 10.00 | Fair | CLR | 44.6 | 37.4 | 76% | 40 | 29.93 | 0.0 | ||||||
| 02 | 03:35 | N 15 | 10.00 | Fair | CLR | 46.4 | 37.4 | 71% | 41 | 29.92 | 0.0 | ||||||
| 02 | 03:15 | N 8 | 10.00 | Fair | CLR | 46.4 | 37.4 | 71% | 43 | 29.92 | 0.0 | ||||||
| 02 | 02:55 | N 9 | 10.00 | Fair | CLR | 46.4 | 37.4 | 71% | 42 | 29.92 | 0.0 | ||||||
| 02 | 02:35 | N 8 | 10.00 | Partly Cloudy | SCT065 | 46.4 | 37.4 | 71% | 43 | 29.94 | 0.0 | ||||||
| 02 | 02:15 | NW 8 | 10.00 | Mostly Cloudy | BKN065 | 46.4 | 37.4 | 71% | 43 | 29.94 | 0.0 | ||||||
| 02 | 01:55 | NW 10 | 10.00 | Partly Cloudy | SCT031 SCT065 | 48.2 | 37.4 | 66% | 44 | 29.94 | 0.0 | ||||||
| 02 | 01:35 | N 6 | 10.00 | Partly Cloudy | SCT065 | 48.2 | 39.2 | 71% | 46 | 29.95 | 0.0 | ||||||
| 02 | 01:15 | N 6 | 10.00 | Fair | CLR | 48.2 | 39.2 | 71% | 46 | 29.94 | 0.0 | ||||||
| 02 | 00:55 | N 9 | 10.00 | Fair | CLR | 50 | 41 | 71% | 47 | 29.94 | 0.0 | ||||||
| 02 | 00:35 | N 6 | 10.00 | Fair | CLR | 50 | 41 | 71% | 48 | 29.94 | 0.0 | ||||||
| 02 | 00:15 | N 5 | 10.00 | Fair | CLR | 50 | 41 | 71% | 49 | 29.94 | 0.0 | ||||||
| 01 | 23:55 | N 10 | 10.00 | Fair | CLR | 50 | 41 | 71% | 46 | 29.94 | 0.0 | ||||||
| 01 | 23:35 | N 6 | 10.00 | Fair | CLR | 50 | 41 | 71% | 48 | 29.94 | 0.0 | ||||||
| 01 | 23:15 | N 10 | 10.00 | Partly Cloudy | SCT060 | 51.8 | 39.2 | 62% | 29.94 | 0.0 | |||||||
| 01 | 22:55 | NW 12 G 16 | 10.00 | Partly Cloudy | SCT070 | 53.6 | 41 | 63% | 29.93 | 0.0 | |||||||
| 01 | 22:35 | SW 3 | 10.00 | Partly Cloudy | SCT070 | 53.6 | 42.8 | 67% | 29.92 | 0.0 | |||||||
| 01 | 22:15 | S 3 | 10.00 | Fair | CLR | 53.6 | 41 | 63% | 29.92 | 0.0 | |||||||
| 01 | 21:55 | S 6 | 10.00 | Fair | CLR | 53.6 | 41 | 63% | 29.91 | 0.0 | |||||||
| 01 | 21:35 | SW 5 | 10.00 | Fair | CLR | 53.6 | 41 | 63% | 29.89 | 0.0 | |||||||
| 01 | 21:15 | S 5 | 10.00 | Fair | CLR | 53.6 | 41 | 63% | 29.9 | 0.0 | |||||||
| 01 | 20:55 | SW 3 | 10.00 | Fair | CLR | 53.6 | 41 | 63% | 29.89 | 0.0 | |||||||
| 01 | 20:35 | SW 7 | 10.00 | Fair | CLR | 55.4 | 41 | 59% | 29.87 | 0.0 | |||||||
| 01 | 20:15 | Calm | 10.00 | Fair | CLR | 55.4 | 41 | 59% | 29.87 | 0.0 | |||||||
| 01 | 19:55 | S 6 | 10.00 | Fair | CLR | 55.4 | 41 | 59% | 29.87 | 0.0 | |||||||
| 01 | 19:35 | Calm | 10.00 | Fair | CLR | 57.2 | 41 | 55% | 29.86 | 0.0 | |||||||
| 01 | 19:15 | S 3 | 10.00 | Fair | CLR | 59 | 41 | 51% | 29.86 | 0.0 | |||||||
| 01 | 18:55 | S 8 | 10.00 | Fair | CLR | 59 | 41 | 51% | 29.86 | 0.0 | |||||||
| 01 | 18:35 | S 3 | 10.00 | Fair | CLR | 60.8 | 41 | 48% | 29.86 | 0.0 | |||||||
| 01 | 18:15 | S 9 | 10.00 | Mostly Cloudy | SCT075 BKN080 | 60.8 | 41 | 48% | 29.86 | 0.0 | |||||||
| 01 | 17:55 | S 8 | 10.00 | Overcast | OVC080 | 60.8 | 41 | 48% | 29.86 | 0.0 | |||||||
| 01 | 17:35 | SE 7 | 10.00 | Overcast | SCT070 OVC080 | 59 | 41 | 51% | 29.87 | 0.0 | |||||||
| 01 | 17:15 | S 6 | 10.00 | Overcast | BKN060 BKN080 OVC090 | 60.8 | 41 | 48% | 29.87 | 0.0 | |||||||
| 01 | 16:55 | S 8 | 10.00 | Overcast | SCT060 BKN070 OVC080 | 59 | 39.2 | 48% | 29.87 | 0.0 | |||||||
| 01 | 16:35 | S 6 | 10.00 | Overcast | BKN065 OVC075 | 59 | 39.2 | 48% | 29.87 | 0.0 | |||||||
| 01 | 16:15 | S 9 | 10.00 | Overcast | SCT055 BKN070 OVC075 | 59 | 39.2 | 48% | 29.87 | 0.0 | |||||||
| 01 | 15:55 | S 10 G 16 | 10.00 | Overcast | BKN055 OVC070 | 59 | 37.4 | 45% | 29.89 | 0.0 | |||||||
| 01 | 15:35 | S 12 | 10.00 | Overcast | BKN065 OVC075 | 59 | 37.4 | 45% | 29.89 | 0.0 | |||||||
| 01 | 15:15 | S 9 G 20 | 10.00 | Overcast | BKN065 OVC075 | 60.8 | 37.4 | 42% | 29.9 | 0.0 | |||||||
| 01 | 14:55 | S 10 G 20 | 10.00 | Mostly Cloudy | BKN065 | 60.8 | 39.2 | 45% | 29.91 | 0.0 | |||||||
| 01 | 14:35 | S 10 G 17 | 10.00 | Fair | CLR | 60.8 | 41 | 48% | 29.91 | 0.0 | |||||||
| 01 | 13:55 | S 12 G 17 | 10.00 | Fair | CLR | 59 | 37.4 | 45% | 29.93 | 0.0 | |||||||
| 01 | 13:35 | S 10 | 10.00 | Fair | CLR | 59 | 37.4 | 45% | 29.93 | 0.0 | |||||||
| 01 | 13:15 | SW 10 G 21 | 10.00 | Partly Cloudy | SCT065 | 57.2 | 37.4 | 48% | 29.95 | 0.0 | |||||||
| 01 | 12:55 | S 10 | 10.00 | Partly Cloudy | SCT065 SCT100 | 57.2 | 39.2 | 51% | 29.96 | 0.0 | |||||||
| 01 | 12:35 | SE 9 | 10.00 | Partly Cloudy | SCT070 SCT100 | 55.4 | 37.4 | 51% | 29.96 | 0.0 | |||||||
| 01 | 12:15 | S 10 G 16 | 10.00 | Mostly Cloudy | BKN070 BKN085 | 55.4 | 37.4 | 51% | 29.96 | 0.0 | |||||||
| 01 | 11:55 | SE 10 | 10.00 | Mostly Cloudy | BKN070 BKN085 BKN100 | 53.6 | 35.6 | 51% | 29.97 | 0.0 | |||||||
| 01 | 11:35 | SE 7 G 16 | 10.00 | Overcast | BKN070 BKN080 OVC095 | 51.8 | 33.8 | 50% | 29.97 | 0.0 | |||||||
| 01 | 11:15 | S 9 | 10.00 | Overcast | SCT070 OVC095 | 51.8 | 32 | 47% | 29.97 | 0.0 | |||||||
| 01 | 10:55 | S 10 | 10.00 | Overcast | SCT095 OVC120 | 53.6 | 33.8 | 47% | 29.97 | 0.0 | |||||||
| 01 | 10:35 | S 9 | 10.00 | Partly Cloudy | SCT110 | 51.8 | 33.8 | 50% | 29.98 | 0.0 | |||||||
| 01 | 10:15 | S 7 | 10.00 | Mostly Cloudy | SCT075 BKN110 | 51.8 | 33.8 | 50% | 29.98 | 0.0 | |||||||
| 01 | 09:55 | SE 9 | 10.00 | Partly Cloudy | SCT075 SCT120 | 50 | 33.8 | 54% | 47 | 29.98 | 0.0 | ||||||
| 01 | 09:35 | S 5 | 10.00 | Fair | CLR | 48.2 | 33.8 | 58% | 47 | 29.97 | 0.0 | ||||||
| 01 | 09:15 | SE 8 | 10.00 | Fair | CLR | 46.4 | 35.6 | 66% | 43 | 29.98 | 0.0 | ||||||
| 01 | 08:55 | SE 5 | 10.00 | Fair | CLR | 46.4 | 35.6 | 66% | 45 | 29.98 | 0.0 | ||||||
| 01 | 08:35 | Calm | 10.00 | Fair | CLR | 44.6 | 35.6 | 71% | 29.98 | 0.0 | |||||||
| 01 | 08:15 | Calm | 10.00 | Partly Cloudy | SCT090 SCT120 | 44.6 | 35.6 | 71% | 29.98 | 0.0 | |||||||
| 01 | 07:55 | Calm | 10.00 | Mostly Cloudy | BKN090 BKN120 | 42.8 | 37.4 | 81% | 29.98 | 0.0 | |||||||
| 01 | 07:35 | Calm | 10.00 | Overcast | OVC080 | 42.8 | 35.6 | 76% | 29.98 | 0.0 | |||||||
| 01 | 07:15 | Calm | 10.00 | Mostly Cloudy | BKN080 | 42.8 | 33.8 | 71% | 29.98 | 0.0 | |||||||
| 01 | 06:55 | Calm | 10.00 | Mostly Cloudy | BKN090 | 42.8 | 33.8 | 71% | 29.97 | 0.0 | |||||||
| 01 | 06:35 | Calm | 10.00 | Overcast | OVC090 | 41 | 33.8 | 76% | 29.96 | 0.0 | |||||||
| 01 | 06:15 | Calm | 10.00 | Mostly Cloudy | BKN090 | 41 | 33.8 | 76% | 29.96 | 0.0 | |||||||
| 01 | 05:55 | Calm | 10.00 | Mostly Cloudy | BKN090 | 42.8 | 32 | 66% | 29.96 | 0.0 | |||||||
| 01 | 05:35 | Calm | 10.00 | Mostly Cloudy | BKN090 | 41 | 32 | 70% | 29.95 | 0.0 | |||||||
| 01 | 05:15 | Calm | 10.00 | Partly Cloudy | SCT090 | 41 | 33.8 | 76% | 29.96 | 0.0 | |||||||
| 01 | 04:55 | Calm | 10.00 | Fair | CLR | 42.8 | 32 | 66% | 29.96 | 0.0 | |||||||
| 01 | 04:35 | Calm | 10.00 | Fair | CLR | 42.8 | 32 | 66% | 29.96 | 0.0 | |||||||
| 01 | 04:15 | Calm | 10.00 | Fair | CLR | 42.8 | 32 | 66% | 29.96 | 0.0 | |||||||
| 01 | 03:55 | N 6 | 10.00 | Fair | CLR | 42.8 | 32 | 66% | 40 | 29.96 | 0.0 | ||||||
| 01 | 03:35 | N 6 | 10.00 | Fair | CLR | 42.8 | 32 | 66% | 40 | 29.96 | 0.0 | ||||||
| 01 | 03:15 | Calm | 10.00 | Fair | CLR | 44.6 | 32 | 61% | 29.96 | 0.0 | |||||||
| 01 | 02:55 | N 8 | 10.00 | Fair | CLR | 44.6 | 32 | 61% | 41 | 29.96 | 0.0 | ||||||
| 01 | 02:35 | N 6 | 10.00 | Fair | CLR | 44.6 | 32 | 61% | 42 | 29.96 | 0.0 | ||||||
| 01 | 02:15 | N 13 | 10.00 | Fair | CLR | 44.6 | 32 | 61% | 39 | 29.96 | 0.0 | ||||||
| 01 | 01:55 | N 5 | 10.00 | Fair | CLR | 44.6 | 32 | 61% | 43 | 29.96 | 0.0 | ||||||
| 01 | 01:35 | N 10 | 10.00 | Fair | CLR | 44.6 | 32 | 61% | 40 | 29.95 | 0.0 | ||||||
| 01 | 01:15 | N 14 | 10.00 | Fair | CLR | 44.6 | 32 | 61% | 39 | 29.95 | 0.0 | ||||||
| 01 | 00:55 | N 17 G 23 | 10.00 | Fair | CLR | 44.6 | 32 | 61% | 38 | 29.96 | 0.0 | ||||||
| 01 | 00:35 | N 16 | 10.00 | Fair | CLR | 44.6 | 33.8 | 66% | 38 | 29.96 | 0.0 | ||||||
| 01 | 00:15 | N 9 | 10.00 | Fair | CLR | 44.6 | 33.8 | 66% | 40 | 29.97 | 0.0 | ||||||
| 30 | 23:55 | N 15 | 10.00 | Fair | CLR | 44.6 | 35.6 | 71% | 38 | 29.96 | 0.0 | ||||||
| 30 | 23:35 | N 9 | 10.00 | Fair | CLR | 46.4 | 33.8 | 62% | 42 | 29.97 | 0.0 | ||||||
| 30 | 23:15 | N 6 | 10.00 | Fair | CLR | 46.4 | 33.8 | 62% | 44 | 29.98 | 0.0 | ||||||
| 30 | 22:55 | N 8 | 10.00 | Fair | CLR | 46.4 | 33.8 | 62% | 43 | 29.98 | 0.0 | ||||||
| 30 | 22:35 | N 10 | 10.00 | Fair | CLR | 50 | 33.8 | 54% | 46 | 29.97 | 0.0 | ||||||
| 30 | 22:15 | NW 10 | 10.00 | Fair | CLR | 50 | 32 | 50% | 46 | 29.97 | 0.0 | ||||||
| 30 | 21:55 | NW 10 | 10.00 | Fair | CLR | 50 | 32 | 50% | 46 | 29.96 | 0.0 | ||||||
| 30 | 21:35 | N 9 | 10.00 | Fair | CLR | 51.8 | 32 | 47% | 29.95 | 0.0 | |||||||
| 30 | 21:15 | N 9 | 10.00 | Fair | CLR | 51.8 | 32 | 47% | 29.94 | 0.0 | |||||||
| 30 | 20:55 | NW 9 | 10.00 | Fair | CLR | 51.8 | 32 | 47% | 29.93 | 0.0 | |||||||
| 30 | 20:35 | NW 8 | 10.00 | Fair | CLR | 53.6 | 32 | 44% | 29.92 | 0.0 | |||||||
| 30 | 20:15 | NW 7 | 10.00 | Fair | CLR | 53.6 | 32 | 44% | 29.91 | 0.0 | |||||||
| 30 | 19:55 | NW 9 | 10.00 | Fair | CLR | 55.4 | 32 | 41% | 29.91 | 0.0 | |||||||
| 30 | 19:35 | NW 13 G 16 | 10.00 | Fair | CLR | 55.4 | 32 | 41% | 29.9 | 0.0 | |||||||
| 30 | 19:15 | NW 14 G 18 | 10.00 | Fair | CLR | 57.2 | 30.2 | 36% | 29.89 | 0.0 | |||||||
| 30 | 18:55 | NW 15 G 21 | 10.00 | Fair | CLR | 57.2 | 28.4 | 33% | 29.89 | 0.0 | |||||||
| 30 | 18:35 | NW 13 G 20 | 10.00 | Fair | CLR | 59 | 32 | 36% | 29.89 | 0.0 | |||||||
| 30 | 18:15 | N 16 G 22 | 10.00 | Fair | CLR | 59 | 32 | 36% | 29.89 | 0.0 | |||||||
| 30 | 17:55 | NW 16 | 10.00 | Fair | CLR | 59 | 32 | 36% | 29.88 | 0.0 | |||||||
| 30 | 17:35 | NW 14 G 23 | 10.00 | Fair | CLR | 60.8 | 32 | 34% | 29.87 | 0.0 | |||||||
| 30 | 17:15 | NW 12 G 18 | 10.00 | Fair | CLR | 60.8 | 32 | 34% | 29.87 | 0.0 | |||||||
| 30 | 16:55 | N 16 | 10.00 | Fair | CLR | 60.8 | 32 | 34% | 29.87 | 0.0 | |||||||
| 30 | 16:35 | W 12 G 17 | 10.00 | Fair | CLR | 60.8 | 32 | 34% | 29.87 | 0.0 | |||||||
| 30 | 16:15 | NW 15 G 24 | 10.00 | Fair | CLR | 60.8 | 32 | 34% | 29.87 | 0.0 | |||||||
| 30 | 15:55 | W 15 G 21 | 10.00 | Fair | CLR | 60.8 | 32 | 34% | 29.87 | 0.0 | |||||||
| 30 | 15:35 | W 13 G 23 | 10.00 | Fair | CLR | 60.8 | 33.8 | 36% | 29.87 | 0.0 | |||||||
| 30 | 15:15 | W 14 G 20 | 10.00 | Fair | CLR | 60.8 | 32 | 34% | 29.87 | 0.0 | |||||||
| 30 | 14:55 | NW 15 G 23 | 10.00 | Fair | CLR | 60.8 | 33.8 | 36% | 29.87 | 0.0 | |||||||
| 30 | 14:15 | NW 15 G 23 | 10.00 | Partly Cloudy | SCT050 | 59 | 35.6 | 42% | 29.87 | 0.0 | |||||||
| 30 | 13:55 | NW 22 G 25 | 10.00 | Partly Cloudy and Breezy | SCT050 | 59 | 35.6 | 42% | 29.87 | 0.0 | |||||||
| 30 | 13:35 | NW 18 G 25 | 10.00 | Partly Cloudy | SCT048 | 59 | 35.6 | 42% | 29.87 | 0.0 | |||||||
| 30 | 13:15 | NW 12 G 21 | 10.00 | Partly Cloudy | SCT050 | 59 | 37.4 | 45% | 29.88 | 0.0 | |||||||
| 30 | 12:55 | W 13 G 24 | 10.00 | Partly Cloudy | SCT046 SCT055 | 59 | 37.4 | 45% | 29.89 | 0.0 | |||||||
| 30 | 12:35 | NW 15 G 23 | 10.00 | Partly Cloudy | SCT040 SCT046 | 59 | 37.4 | 45% | 29.89 | 0.0 | |||||||
| 30 | 12:15 | NW 15 G 23 | 10.00 | Mostly Cloudy | SCT040 BKN045 | 57.2 | 39.2 | 51% | 29.89 | 0.0 | |||||||
| 30 | 11:55 | W 13 G 25 | 10.00 | Partly Cloudy | SCT038 | 57.2 | 39.2 | 51% | 29.89 | 0.0 | |||||||
| 30 | 11:35 | W 8 G 21 | 10.00 | Partly Cloudy | SCT034 SCT041 | 55.4 | 39.2 | 55% | 29.9 | 0.0 | |||||||
| 30 | 11:15 | NW 13 | 10.00 | Mostly Cloudy | SCT034 BKN041 BKN120 | 55.4 | 41 | 59% | 29.9 | 0.0 | |||||||
| 30 | 10:55 | NW 12 G 20 | 10.00 | Mostly Cloudy | SCT028 BKN036 | 55.4 | 41 | 59% | 29.89 | 0.0 | |||||||
| 30 | 10:35 | NW 8 | 10.00 | Mostly Cloudy | SCT026 BKN037 | 55.4 | 42.8 | 63% | 29.9 | 0.0 | |||||||
| 30 | 10:15 | N 8 | 10.00 | Overcast | BKN026 OVC035 | 53.6 | 42.8 | 67% | 29.9 | 0.0 | |||||||
| 30 | 09:55 | NW 7 | 10.00 | Overcast | BKN023 OVC031 | 53.6 | 42.8 | 67% | 29.9 | 0.0 | |||||||
| 30 | 09:35 | NW 3 | 10.00 | Overcast | BKN021 BKN029 OVC034 | 53.6 | 42.8 | 67% | 29.9 | 0.0 | |||||||
| 30 | 09:15 | N 7 | 10.00 | Overcast | BKN023 OVC030 | 51.8 | 42.8 | 72% | 29.89 | 0.0 | |||||||
| 30 | 08:55 | NW 5 | 10.00 | Mostly Cloudy | SCT025 BKN033 | 51.8 | 44.6 | 77% | 29.89 | 0.0 | |||||||
| 30 | 08:35 | NW 6 | 10.00 | Overcast | BKN027 OVC033 | 51.8 | 44.6 | 77% | 29.89 | 0.0 | |||||||
| 30 | 08:15 | NW 5 | 10.00 | Overcast | BKN025 OVC035 | 51.8 | 44.6 | 77% | 29.89 | 0.0 | |||||||
| 30 | 07:55 | NW 7 | 10.00 | Overcast | SCT021 SCT025 OVC035 | 51.8 | 44.6 | 77% | 29.89 | 0.0 | |||||||
| 30 | 07:35 | NW 9 | 10.00 | Overcast | SCT025 OVC035 | 51.8 | 46.4 | 82% | 29.88 | 0.0 | |||||||
| 30 | 07:15 | NW 6 | 10.00 | Overcast | BKN025 OVC031 | 51.8 | 44.6 | 77% | 29.87 | 0.0 | |||||||
| 30 | 06:55 | W 6 | 10.00 | Overcast | BKN023 OVC027 | 51.8 | 44.6 | 77% | 29.85 | 0.0 | |||||||
| 30 | 06:35 | SW 5 | 10.00 | Overcast | OVC023 | 51.8 | 44.6 | 77% | 29.85 | 0.0 | |||||||
| 30 | 05:55 | W 5 | 10.00 | Mostly Cloudy | BKN027 | 51.8 | 44.6 | 77% | 29.83 | 0.0 | |||||||
| 30 | 05:35 | NW 6 | 10.00 | Partly Cloudy | SCT027 | 51.8 | 44.6 | 77% | 29.82 | 0.0 | |||||||
| 30 | 05:15 | NW 8 | 10.00 | Fair | CLR | 51.8 | 44.6 | 77% | 29.82 | 0.0 | |||||||
| 30 | 04:55 | NW 9 | 10.00 | Fair | CLR | 51.8 | 44.6 | 77% | 29.81 | 0.0 | |||||||
| 30 | 04:35 | NW 9 | 10.00 | Fair | CLR | 51.8 | 44.6 | 77% | 29.82 | 0.0 | |||||||
| 30 | 04:15 | NW 10 | 10.00 | Fair | CLR | 51.8 | 44.6 | 77% | 29.83 | 0.0 | |||||||
| 30 | 03:55 | NW 8 | 10.00 | Fair | CLR | 51.8 | 44.6 | 77% | 29.84 | 0.0 | |||||||
| 30 | 03:35 | NW 5 | 10.00 | Fair | CLR | 51.8 | 44.6 | 77% | 29.85 | 0.0 | |||||||
| 30 | 03:15 | NW 8 | 10.00 | Fair | CLR | 51.8 | 44.6 | 77% | 29.85 | 0.0 | |||||||
| 30 | 02:55 | W 6 | 10.00 | Fair | CLR | 51.8 | 44.6 | 77% | 29.85 | 0.0 | |||||||
| 30 | 02:35 | NW 7 | 10.00 | Fair | CLR | 51.8 | 44.6 | 77% | 29.86 | 0.0 | |||||||
| 30 | 02:15 | W 5 | 10.00 | Fair | CLR | 51.8 | 44.6 | 77% | 29.87 | 0.0 | |||||||
| 30 | 01:55 | NW 6 | 10.00 | Fair | CLR | 53.6 | 44.6 | 72% | 29.87 | 0.0 | |||||||
| 30 | 01:35 | NW 9 | 10.00 | Fair | CLR | 53.6 | 44.6 | 72% | 29.88 | 0.0 | |||||||
| 30 | 01:15 | NW 12 | 10.00 | Fair | CLR | 53.6 | 44.6 | 72% | 29.89 | 0.0 | |||||||
| 30 | 00:55 | NW 8 | 10.00 | Fair | CLR | 53.6 | 44.6 | 72% | 29.89 | 0.0 | |||||||
| 30 | 00:35 | NW 12 | 10.00 | Partly Cloudy | SCT029 | 55.4 | 46.4 | 72% | 29.89 | 0.0 | |||||||
| 30 | 00:15 | NW 12 G 17 | 10.00 | Partly Cloudy | SCT029 | 55.4 | 48.2 | 77% | 29.89 | 0.0 | |||||||
| 29 | 23:55 | NW 16 G 21 | 10.00 | Mostly Cloudy | BKN031 BKN038 | 59 | 48.2 | 68% | 29.88 | 0.0 | |||||||
| 29 | 23:35 | NW 15 G 18 | 10.00 | Mostly Cloudy | SCT028 BKN036 | 59 | 50 | 72% | 29.88 | 0.0 | |||||||
| 29 | 23:15 | NW 8 | 10.00 | Mostly Cloudy | SCT030 BKN038 | 59 | 51.8 | 77% | 29.89 | 0.0 | |||||||
| 29 | 22:55 | NW 7 | 10.00 | Mostly Cloudy | BKN038 BKN046 | 59 | 50 | 72% | 29.89 | 0.0 | |||||||
| 29 | 22:35 | NW 12 | 10.00 | Partly Cloudy | SCT041 SCT047 | 60.8 | 50 | 68% | 29.89 | 0.0 | |||||||
| 29 | 22:15 | NW 8 | 10.00 | Fair | CLR | 60.8 | 50 | 68% | 29.89 | 0.0 | |||||||
| 29 | 21:55 | NW 12 | 10.00 | Fair | CLR | 60.8 | 51.8 | 72% | 29.87 | 0.0 | |||||||
| 29 | 21:35 | NW 13 G 21 | 10.00 | Partly Cloudy | SCT070 | 60.8 | 51.8 | 72% | 29.87 | 0.0 | |||||||
| 29 | 21:15 | NW 15 G 22 | 10.00 | Partly Cloudy | SCT025 SCT037 SCT046 | 62.6 | 53.6 | 73% | 29.87 | 0.0 | |||||||
| 29 | 20:55 | NW 14 G 17 | 10.00 | Mostly Cloudy | SCT025 SCT038 BKN047 | 62.6 | 55.4 | 77% | 29.86 | 0.0 | |||||||
| 29 | 20:35 | NW 15 G 21 | 10.00 | Partly Cloudy | SCT033 SCT043 SCT055 | 62.6 | 55.4 | 77% | 29.84 | 0.0 | |||||||
| 29 | 20:15 | W 12 | 10.00 | Mostly Cloudy | SCT027 SCT033 BKN070 | 62.6 | 55.4 | 77% | 29.84 | 0.0 | |||||||
| 29 | 19:55 | NW 14 G 20 | 10.00 | Mostly Cloudy | SCT040 SCT060 BKN070 | 62.6 | 55.4 | 77% | 29.83 | 0.0 | |||||||
| 29 | 19:35 | W 10 G 22 | 10.00 | Mostly Cloudy | SCT029 SCT035 BKN041 | 64.4 | 57.2 | 78% | 29.83 | 0.0 | |||||||
| 29 | 19:15 | NW 15 G 25 | 10.00 | Overcast | SCT033 BKN041 OVC049 | 64.4 | 55.4 | 73% | 29.83 | 0.0 | |||||||
| 29 | 18:55 | W 13 G 18 | 10.00 | Light Rain | BKN046 BKN060 OVC080 | 68 | 53.6 | 60% | 29.81 | 0.0 | |||||||
| 29 | 18:35 | W 13 G 24 | 10.00 | Mostly Cloudy | SCT040 BKN047 BKN055 | 69.8 | 51.8 | 53% | 29.8 | 0.0 | |||||||
| 29 | 18:15 | W 10 G 25 | 10.00 | Mostly Cloudy | SCT042 SCT055 BKN065 | 69.8 | 53.6 | 57% | 29.8 | 0.0 | |||||||
| 29 | 17:55 | W 14 G 25 | 10.00 | Mostly Cloudy | SCT046 BKN065 BKN070 | 69.8 | 51.8 | 53% | 29.8 | 0.0 | |||||||
| 29 | 17:35 | W 12 G 25 | 10.00 | Mostly Cloudy | SCT043 SCT050 BKN070 | 69.8 | 51.8 | 53% | 29.8 | 0.0 | |||||||
| 29 | 17:15 | W 17 G 26 | 10.00 | Mostly Cloudy | SCT041 SCT050 BKN070 | 69.8 | 53.6 | 57% | 29.8 | 0.0 | |||||||
| 29 | 16:55 | W 23 G 31 | 10.00 | Overcast and Breezy | BKN039 BKN047 OVC090 | 69.8 | 53.6 | 57% | 29.8 | 0.0 | |||||||
| 29 | 16:35 | W 14 G 17 | 10.00 | Overcast | SCT036 BKN042 OVC090 | 69.8 | 55.4 | 60% | 29.81 | 0.0 | |||||||
| 29 | 16:15 | W 14 G 17 | 10.00 | Overcast | BKN036 BKN046 OVC095 | 69.8 | 55.4 | 60% | 29.82 | 0.0 | |||||||
| 29 | 15:55 | W 13 | 10.00 | Overcast | BKN034 OVC046 | 68 | 55.4 | 64% | 29.82 | 0.0 | |||||||
| Date | Time (edt) | Wind (mph) | Vis. (mi.) | Weather | Sky Cond. | Air | Dwpt | Max. | Min. | Relative Humidity | Wind Chill (°F) | Heat Index (°F) | altimeter (in) | sea level (mb) | 1 hr | 3 hr | 6 hr |
| 6 hour | |||||||||||||||||
| Temperature (ºF) | Pressure | Precipitation (in) | |||||||||||||||